Weather Roundup
Issued by NWS Corpus Christi, TX

Home | Current Version | Previous Version | Text Only | Print | Product List | Glossary On
Versions: 1 2 3 4 5 6 7 8 9 10 11 12 13 14 15 16 17 18 19 20 21 22 23 24 25 26 27 28 29 30 31 32 33 34 35 36 37 38 39 40 41 42 43 44 45 46 47 48 49 50
108
ASUS44 KCRP 282010
HRRCRP

SOUTH TEXAS REGIONAL WEATHER ROUNDUP
NATIONAL WEATHER SERVICE CORPUS CHRISTI TX
300 PM CDT THU JUL 28 2016


TXZ229>244-282100-
...CORPUS CHRISTI AREA OBSERVATIONS...

CITY           SKY/WX    TMP DP  RH WIND       PRES   REMARKS
CORPUS CHRISTI PTSUNNY   94  75  54 SE15G26   29.94F HX 105
NAS CORPUS CHR PTSUNNY   92  77  61 S8        29.95F HX 105
ROCKPORT       PTSUNNY   91  76  61 SE15      29.95F HX 103
KINGSVILLE NAS PTSUNNY   97  79  56 SE20G30   29.91F HX 115
ALICE          MOSUNNY   98  69  38 SE16G24   29.90F HX 104
FALFURRIAS     PTSUNNY   92  67  43 E16G24    29.90F HX  95
$$

...VICTORIA AREA OBSERVATIONS...

CITY           SKY/WX    TMP DP  RH WIND       PRES   REMARKS
VICTORIA       CLOUDY    82  77  84 E9        29.97F HX  90
BEEVILLE       TSTM      73  73 100 E12       29.97F
PLEASANTON     CLOUDY    94  67  40 SE3       29.92F HX  98
SAN ANTONIO    PTSUNNY   93  69  45 SW9       29.95F HX  98
$$

...LAREDO AREA OBSERVATIONS...

CITY           SKY/WX    TMP DP  RH WIND       PRES   REMARKS
LAREDO         CLOUDY    97  68  38 SE10G20   29.89F HX 102
COTULLA        TSTM      84  71  65 E7        29.92F
DEL RIO        MOSUNNY   95  68  41 E10       29.93F HX  99
MCALLEN        MOSUNNY  102  68  33 S16G28    29.90F HX 108
HEBBRONVILLE   PTSUNNY   99  63  30 S15G22    29.91F HX 100
$$

...OTHER TEXAS OBSERVATIONS...

CITY           SKY/WX    TMP DP  RH WIND       PRES   REMARKS
BROWNSVILLE    MOSUNNY   95  74  50 SE21G28   29.94F HX 105
HOUSTON        LGT RAIN  79  74  84 CALM      30.01F
COL. STATION   LGT RAIN  80  73  79 S24G33    30.01R
AUSTIN         PTSUNNY   95  71  45 S8        29.95F HX 102
WACO           SUNNY     97  67  37 S7        29.94F HX 101
FORT WORTH     PTSUNNY   96  69  41 VRB5      29.92F HX 102
WICHITA FALLS  MOSUNNY   95  69  42 S7        29.92F HX 100
LUBBOCK        MOSUNNY   94  57  28 E7        30.07F HX  92
EL PASO        MOSUNNY   95  48  20 NE8G17    30.06F HX  91
$$

...MARINE OBSERVATIONS...

STATION/POSITION TIME  SKY/WX   TEMP    WIND        PRES    VSBY  WAVE   SWELL
                                AIR SEA DIR/SP/G                  HT/PER HT/PER
                 (UTC)          (F)     (DEG/KT/KT) (MB)    (MI)  (FT/S) (FT/S)
PORT ARANSAS     2000            85 89  140/ 13/ 14 1014.8F
BUOY 90 E PORT A 1950            86 86  160/  8/  8 1015.6F         3/ 7   3/ 7
BUOY 45 SE BAFFI 1950            85 85  160/ 10/ 12 1014.3F         3/ 7   3/ 7
BUOY 200 E PT IS 1950            86 86  120/ 12/ 14 1015.6F         3/ 6   2/ 6
BUOY 15 E GALVES 1950            85 86  270/ 10/ 12 1016.0          3/ 6   2/ 6
$$




USA.gov is the U.S. government's official web portal to all federal, state and local government web resources and services.